{"data":{"norad_id":57219,"epoch":"2026-09-20T15:42:11.746368Z","epoch_age_seconds":107608,"freshness":"FRESH","line1":"1 57219U 23094B   26263.65430262  .00001397  00000+0  60281-4 0  9999","line2":"2 57219  43.0027  13.0000 0001582 269.2740  90.7930 15.27587680176890","mean_motion":15.2758768,"eccentricity":0.0001582,"inclination_deg":43.0027,"raan_deg":13,"arg_perigee_deg":269.274,"mean_anomaly_deg":90.793,"bstar":6.0281e-5,"rev_number":17689,"period_min":94.266274784306,"perigee_km":481.9406634508,"apogee_km":484.11153545547,"semimajor_km":6861.1630994531,"source":"CELESTRAK","updated_at":"2026-09-21T09:00:33.584018Z"}}